Torna al catalogo

CZ-6A DEB

AttivoPO
NORAD 64662·DEBRIS·🇨🇳 China

Lanciato Aug 6, 2024 da Taiyuan Satellite Launch Center

Loading…

Prossimi Passaggi (prossime 24 ore)

TLE

AggiornatoSource: Space-Track

Epoca: Sep 14, 2026, 00:10 UTC

1 64662U 24140AFC 26257.00711980  .00000287  00000-0  12713-3 0  9997
2 64662  88.9929 264.4642 0045204 282.3646  77.2487 14.20041303 97060

Traccia CZ-6A DEB in tempo reale con AllMySat

Download on the App Store